Time,TemperatureF,DewpointF,PressureIn,WindDirection,WindDirectionDegrees,WindSpeedMPH,WindSpeedGustMPH,Humidity,HourlyPrecipIn,Conditions,Clouds,dailyrainin,SoftwareType,DateUTC
2013-11-06 00:03:00,45.0,40.7,29.48,SE,135,0.0,0.0,85,0.00,CLR,FEW,0.40,WeatherDisplay:10.37,2013-11-05 23:03:00,
2013-11-06 00:08:00,44.8,40.5,29.48,NE,45,0.0,0.0,85,0.00,CLR,FEW,0.40,WeatherDisplay:10.37,2013-11-05 23:08:00,
2013-11-06 00:13:00,44.6,40.4,29.48,WSW,248,3.5,3.5,85,0.00,CLR,FEW,0.40,WeatherDisplay:10.37,2013-11-05 23:13:00,
2013-11-06 00:18:00,44.6,40.7,29.48,North,0,2.3,2.3,86,0.00,CLR,FEW,0.40,WeatherDisplay:10.37,2013-11-05 23:18:00,
2013-11-06 00:23:00,44.4,40.5,29.48,SSE,158,1.2,1.2,86,0.00,CLR,FEW,0.40,WeatherDisplay:10.37,2013-11-05 23:23:00,
2013-11-06 00:28:00,44.2,40.3,29.48,SSE,158,2.3,2.3,86,0.00,CLR,FEW,0.40,WeatherDisplay:10.37,2013-11-05 23:28:00,
2013-11-06 00:33:00,44.2,40.3,29.49,South,180,1.2,1.2,86,0.00,CLR,FEW,0.40,WeatherDisplay:10.37,2013-11-05 23:33:00,
2013-11-06 00:38:00,44.1,40.4,29.48,ESE,112,0.0,0.0,87,0.00,CLR,FEW,0.40,WeatherDisplay:10.37,2013-11-05 23:38:00,
2013-11-06 00:43:00,43.7,40.1,29.49,ESE,112,0.0,0.1,87,0.00,CLR,FEW,0.40,WeatherDisplay:10.37,2013-11-05 23:43:00,
2013-11-06 00:48:00,43.7,40.1,29.49,ENE,68,0.0,0.0,87,0.00,CLR,FEW,0.40,WeatherDisplay:10.37,2013-11-05 23:48:00,
2013-11-06 00:53:00,43.7,40.1,29.49,East,90,1.2,1.2,87,0.00,CLR,FEW,0.40,WeatherDisplay:10.37,2013-11-05 23:53:00,
2013-11-06 00:58:00,43.9,40.3,29.49,ESE,112,0.0,0.0,87,0.00,CLR,FEW,0.40,WeatherDisplay:10.37,2013-11-05 23:58:00,
2013-11-06 01:03:00,44.2,40.3,29.49,SE,135,1.2,1.2,86,0.00,CLR,FEW,0.40,WeatherDisplay:10.37,2013-11-06 00:03:00,
2013-11-06 01:08:00,43.9,40.0,29.50,North,0,2.3,2.3,86,0.00,CLR,FEW,0.40,WeatherDisplay:10.37,2013-11-06 00:08:00,
2013-11-06 01:13:00,43.9,40.0,29.50,NNE,22,0.0,0.0,86,0.00,CLR,FEW,0.40,WeatherDisplay:10.37,2013-11-06 00:13:00,
2013-11-06 01:18:00,43.7,39.8,29.50,NE,45,0.0,0.0,86,0.00,CLR,FEW,0.40,WeatherDisplay:10.37,2013-11-06 00:18:00,
2013-11-06 01:23:00,43.5,39.6,29.50,SSE,158,1.2,1.2,86,0.00,CLR,FEW,0.40,WeatherDisplay:10.37,2013-11-06 00:23:00,
2013-11-06 01:28:00,43.5,39.6,29.50,SSE,158,1.3,1.3,86,0.00,CLR,FEW,0.40,WeatherDisplay:10.37,2013-11-06 00:28:00,
2013-11-06 01:33:00,43.3,39.4,29.50,SSW,202,0.0,0.0,86,0.00,CLR,FEW,0.40,WeatherDisplay:10.37,2013-11-06 00:33:00,
2013-11-06 01:38:00,43.0,39.1,29.50,WNW,292,5.8,5.8,86,0.00,CLR,FEW,0.40,WeatherDisplay:10.37,2013-11-06 00:38:00,
2013-11-06 01:43:00,43.3,39.4,29.49,SSE,158,2.7,2.7,86,0.00,CLR,FEW,0.40,WeatherDisplay:10.37,2013-11-06 00:43:00,
2013-11-06 01:48:00,43.2,39.3,29.50,West,270,3.5,3.5,86,0.00,CLR,FEW,0.40,WeatherDisplay:10.37,2013-11-06 00:48:00,
2013-11-06 01:53:00,43.2,39.3,29.50,WNW,292,2.3,2.3,86,0.00,CLR,FEW,0.40,WeatherDisplay:10.37,2013-11-06 00:53:00,
2013-11-06 01:58:00,43.3,39.4,29.50,WSW,248,1.2,1.2,86,0.00,CLR,FEW,0.40,WeatherDisplay:10.37,2013-11-06 00:58:00,
2013-11-06 02:03:00,43.2,39.3,29.50,WSW,248,2.3,2.3,86,0.00,CLR,FEW,0.40,WeatherDisplay:10.37,2013-11-06 01:03:00,
2013-11-06 02:08:00,43.0,38.8,29.50,WNW,292,3.5,3.5,85,0.00,CLR,FEW,0.40,WeatherDisplay:10.37,2013-11-06 01:08:00,
2013-11-06 02:13:00,43.0,38.8,29.50,WNW,292,2.3,2.3,85,0.00,CLR,FEW,0.40,WeatherDisplay:10.37,2013-11-06 01:13:00,
2013-11-06 02:18:00,43.0,38.8,29.50,SSE,158,0.0,0.0,85,0.00,CLR,FEW,0.40,WeatherDisplay:10.37,2013-11-06 01:18:00,
2013-11-06 02:23:00,43.0,38.8,29.50,North,0,2.3,2.3,85,0.00,CLR,FEW,0.40,WeatherDisplay:10.37,2013-11-06 01:23:00,
2013-11-06 02:28:00,43.0,38.8,29.50,North,0,5.8,5.8,85,0.00,CLR,FEW,0.40,WeatherDisplay:10.37,2013-11-06 01:28:00,
2013-11-06 02:33:00,43.0,38.5,29.50,WNW,292,1.2,1.2,84,0.00,CLR,FEW,0.40,WeatherDisplay:10.37,2013-11-06 01:33:00,
2013-11-06 02:38:00,43.0,38.5,29.50,WNW,292,1.2,1.2,84,0.00,CLR,FEW,0.40,WeatherDisplay:10.37,2013-11-06 01:38:00,
2013-11-06 02:43:00,43.0,38.5,29.50,West,270,4.6,4.6,84,0.00,CLR,FEW,0.40,WeatherDisplay:10.37,2013-11-06 01:43:00,
2013-11-06 02:48:00,43.0,38.2,29.50,WNW,292,2.0,2.0,83,0.00,CLR,FEW,0.40,WeatherDisplay:10.37,2013-11-06 01:48:00,
2013-11-06 02:53:00,42.6,37.8,29.51,WNW,292,2.5,2.5,83,0.00,CLR,FEW,0.40,WeatherDisplay:10.37,2013-11-06 01:53:00,
2013-11-06 02:58:00,42.6,37.8,29.51,West,270,3.8,3.8,83,0.00,CLR,FEW,0.40,WeatherDisplay:10.37,2013-11-06 01:58:00,
2013-11-06 03:03:00,43.0,37.9,29.51,West,270,3.5,3.5,82,0.00,CLR,FEW,0.40,WeatherDisplay:10.37,2013-11-06 02:03:00,
2013-11-06 03:08:00,43.0,37.5,29.52,West,270,3.5,3.5,81,0.00,CLR,FEW,0.40,WeatherDisplay:10.37,2013-11-06 02:08:00,
2013-11-06 03:13:00,43.0,37.5,29.51,NNW,338,3.5,3.5,81,0.00,CLR,FEW,0.40,WeatherDisplay:10.37,2013-11-06 02:13:00,
2013-11-06 03:18:00,43.0,37.5,29.52,NW,315,6.5,6.5,81,0.00,CLR,FEW,0.40,WeatherDisplay:10.37,2013-11-06 02:18:00,
2013-11-06 03:23:00,43.0,37.2,29.52,West,270,1.2,1.2,80,0.00,CLR,FEW,0.40,WeatherDisplay:10.37,2013-11-06 02:23:00,
2013-11-06 03:28:00,42.6,36.9,29.52,NNE,22,5.8,5.8,80,0.00,CLR,FEW,0.40,WeatherDisplay:10.37,2013-11-06 02:28:00,
2013-11-06 03:33:00,42.8,37.1,29.52,NW,315,3.4,3.4,80,0.00,CLR,FEW,0.40,WeatherDisplay:10.37,2013-11-06 02:33:00,
2013-11-06 03:38:00,42.6,36.9,29.52,West,270,2.5,2.5,80,0.00,CLR,FEW,0.40,WeatherDisplay:10.37,2013-11-06 02:38:00,
2013-11-06 03:43:00,43.0,37.2,29.52,NNW,338,6.9,6.9,80,0.00,CLR,FEW,0.40,WeatherDisplay:10.37,2013-11-06 02:43:00,
2013-11-06 03:48:00,42.6,36.9,29.52,North,0,2.3,2.3,80,0.00,CLR,FEW,0.40,WeatherDisplay:10.37,2013-11-06 02:48:00,
2013-11-06 03:53:00,42.4,36.7,29.53,SSE,158,0.0,0.0,80,0.00,CLR,FEW,0.40,WeatherDisplay:10.37,2013-11-06 02:53:00,
2013-11-06 03:58:00,41.9,36.5,29.53,WNW,292,0.0,0.0,81,0.00,CLR,FEW,0.40,WeatherDisplay:10.37,2013-11-06 02:58:00,
2013-11-06 04:03:00,41.4,36.3,29.53,West,270,0.0,0.0,82,0.00,CLR,FEW,0.40,WeatherDisplay:10.37,2013-11-06 03:03:00,
2013-11-06 04:08:00,41.4,36.6,29.53,West,270,1.2,0.0,83,0.00,CLR,FEW,0.40,WeatherDisplay:10.37,2013-11-06 03:08:00,
2013-11-06 04:13:00,41.7,36.6,29.54,West,270,3.5,3.5,82,0.00,CLR,FEW,0.40,WeatherDisplay:10.37,2013-11-06 03:13:00,
2013-11-06 04:18:00,41.9,36.8,29.54,West,270,4.6,4.6,82,0.00,CLR,FEW,0.40,WeatherDisplay:10.37,2013-11-06 03:18:00,
2013-11-06 04:23:00,41.7,36.6,29.55,NW,315,4.6,4.6,82,0.00,CLR,FEW,0.40,WeatherDisplay:10.37,2013-11-06 03:23:00,
2013-11-06 04:28:00,41.7,36.6,29.54,WNW,292,2.5,2.5,82,0.00,CLR,FEW,0.40,WeatherDisplay:10.37,2013-11-06 03:28:00,
2013-11-06 04:33:00,41.5,36.5,29.54,West,270,3.1,3.1,82,0.00,CLR,FEW,0.40,WeatherDisplay:10.37,2013-11-06 03:33:00,
2013-11-06 04:38:00,41.5,36.8,29.54,SW,225,4.6,4.6,83,0.00,CLR,FEW,0.40,WeatherDisplay:10.37,2013-11-06 03:38:00,
2013-11-06 04:43:00,41.5,36.8,29.55,WNW,292,5.8,5.8,83,0.00,CLR,FEW,0.40,WeatherDisplay:10.37,2013-11-06 03:43:00,
2013-11-06 04:48:00,41.5,36.8,29.55,SE,135,5.8,5.8,83,0.00,CLR,FEW,0.40,WeatherDisplay:10.37,2013-11-06 03:48:00,
2013-11-06 04:53:00,41.4,36.6,29.55,West,270,1.2,1.2,83,0.00,CLR,FEW,0.40,WeatherDisplay:10.37,2013-11-06 03:53:00,
2013-11-06 04:58:00,41.4,36.6,29.55,NW,315,4.6,4.6,83,0.00,CLR,FEW,0.40,WeatherDisplay:10.37,2013-11-06 03:58:00,
2013-11-06 05:03:00,41.2,36.4,29.56,SSE,158,0.0,0.0,83,0.00,CLR,FEW,0.40,WeatherDisplay:10.37,2013-11-06 04:03:00,
2013-11-06 05:08:00,40.8,36.1,29.56,West,270,0.0,0.0,83,0.00,CLR,FEW,0.40,WeatherDisplay:10.37,2013-11-06 04:08:00,
2013-11-06 05:13:00,40.6,35.9,29.56,West,270,0.0,0.0,83,0.00,CLR,FEW,0.40,WeatherDisplay:10.37,2013-11-06 04:13:00,
2013-11-06 05:18:00,40.3,35.8,29.56,West,270,0.0,0.0,84,0.00,CLR,FEW,0.40,WeatherDisplay:10.37,2013-11-06 04:18:00,
2013-11-06 05:23:00,39.9,35.5,29.56,SSE,158,0.0,0.0,84,0.00,CLR,FEW,0.40,WeatherDisplay:10.37,2013-11-06 04:23:00,
2013-11-06 05:28:00,39.6,35.4,29.56,West,270,0.0,0.0,85,0.00,CLR,FEW,0.40,WeatherDisplay:10.37,2013-11-06 04:28:00,
2013-11-06 05:33:00,39.4,35.2,29.56,West,270,2.3,2.3,85,0.00,CLR,FEW,0.40,WeatherDisplay:10.37,2013-11-06 04:33:00,
2013-11-06 05:38:00,39.4,35.2,29.56,WNW,292,1.2,1.2,85,0.00,CLR,FEW,0.40,WeatherDisplay:10.37,2013-11-06 04:38:00,
2013-11-06 05:43:00,39.6,35.4,29.56,West,270,2.3,2.3,85,0.00,CLR,FEW,0.40,WeatherDisplay:10.37,2013-11-06 04:43:00,
2013-11-06 05:48:00,39.9,35.8,29.57,West,270,1.2,0.0,85,0.00,CLR,FEW,0.40,WeatherDisplay:10.37,2013-11-06 04:48:00,
2013-11-06 05:53:00,39.9,35.8,29.57,WNW,292,2.3,2.3,85,0.00,CLR,FEW,0.40,WeatherDisplay:10.37,2013-11-06 04:53:00,
2013-11-06 05:58:00,39.9,35.5,29.57,WNW,292,3.1,3.1,84,0.00,CLR,FEW,0.40,WeatherDisplay:10.37,2013-11-06 04:58:00,
2013-11-06 06:01:00,40.3,35.8,29.57,WNW,292,3.8,3.8,84,0.00,CLR,FEW,0.40,WeatherDisplay:10.37,2013-11-06 05:01:00,
2013-11-06 06:06:00,40.6,36.2,29.56,West,270,0.0,0.0,84,0.00,CLR,FEW,0.40,WeatherDisplay:10.37,2013-11-06 05:06:00,
2013-11-06 06:12:00,40.6,36.2,29.57,WNW,292,0.0,0.0,84,0.00,CLR,FEW,0.40,WeatherDisplay:10.37,2013-11-06 05:12:00,
2013-11-06 06:17:00,40.5,36.0,29.58,NE,45,0.0,0.0,84,0.00,CLR,FEW,0.40,WeatherDisplay:10.37,2013-11-06 05:17:00,
2013-11-06 06:22:00,39.9,35.5,29.58,East,90,0.0,0.0,84,0.00,CLR,FEW,0.40,WeatherDisplay:10.37,2013-11-06 05:22:00,
2013-11-06 06:27:00,39.4,35.2,29.58,East,90,0.0,0.0,85,0.00,CLR,FEW,0.40,WeatherDisplay:10.37,2013-11-06 05:27:00,
2013-11-06 06:32:00,39.0,35.2,29.58,SE,135,0.0,0.0,86,0.00,CLR,FEW,0.40,WeatherDisplay:10.37,2013-11-06 05:32:00,
2013-11-06 06:37:00,38.8,35.0,29.58,SE,135,0.0,0.0,86,0.00,CLR,FEW,0.40,WeatherDisplay:10.37,2013-11-06 05:37:00,
2013-11-06 06:42:00,38.5,34.9,29.59,SE,135,0.0,0.0,87,0.00,CLR,FEW,0.40,WeatherDisplay:10.37,2013-11-06 05:42:00,
2013-11-06 06:47:00,38.3,34.8,29.59,SE,135,0.0,0.0,87,0.00,CLR,FEW,0.40,WeatherDisplay:10.37,2013-11-06 05:47:00,
2013-11-06 06:52:00,38.3,34.8,29.59,SE,135,0.0,0.0,87,0.00,CLR,FEW,0.40,WeatherDisplay:10.37,2013-11-06 05:52:00,
2013-11-06 06:57:00,38.3,35.1,29.59,SE,135,0.0,0.0,88,0.00,CLR,FEW,0.40,WeatherDisplay:10.37,2013-11-06 05:57:00,
2013-11-06 07:02:00,38.5,35.2,29.59,SE,135,0.0,0.0,88,0.00,RA,FEW,0.00,WeatherDisplay:10.37,2013-11-06 06:02:00,
2013-11-06 07:07:00,38.5,35.5,29.60,SE,135,0.0,0.0,89,0.00,RA,FEW,0.00,WeatherDisplay:10.37,2013-11-06 06:07:00,
2013-11-06 07:12:00,38.8,35.9,29.60,SE,135,0.0,0.0,89,0.00,CLR,FEW,0.00,WeatherDisplay:10.37,2013-11-06 06:12:00,
2013-11-06 07:17:00,38.8,35.9,29.60,WSW,248,0.0,0.0,89,0.00,CLR,FEW,0.00,WeatherDisplay:10.37,2013-11-06 06:17:00,
2013-11-06 07:22:00,39.0,36.3,29.60,WSW,248,0.0,0.0,90,0.00,CLR,FEW,0.00,WeatherDisplay:10.37,2013-11-06 06:22:00,
2013-11-06 07:27:00,39.4,36.7,29.61,West,270,0.0,0.0,90,0.00,CLR,FEW,0.00,WeatherDisplay:10.37,2013-11-06 06:27:00,
2013-11-06 07:32:00,39.6,36.9,29.60,West,270,0.0,0.0,90,0.00,CLR,FEW,0.00,WeatherDisplay:10.37,2013-11-06 06:32:00,
2013-11-06 07:37:00,39.9,37.2,29.60,West,270,0.0,0.0,90,0.00,CLR,FEW,0.00,WeatherDisplay:10.37,2013-11-06 06:37:00,
2013-11-06 07:42:00,39.9,37.2,29.61,SSE,158,0.0,0.0,90,0.00,CLR,FEW,0.00,WeatherDisplay:10.37,2013-11-06 06:42:00,
2013-11-06 07:47:00,40.3,37.6,29.61,West,270,0.0,0.0,90,0.00,CLR,FEW,0.00,WeatherDisplay:10.37,2013-11-06 06:47:00,
2013-11-06 07:52:00,40.8,38.1,29.61,SSE,158,1.3,1.3,90,0.00,CLR,FEW,0.00,WeatherDisplay:10.37,2013-11-06 06:52:00,
2013-11-06 07:57:00,41.0,38.0,29.61,South,180,0.0,0.0,89,0.00,CLR,FEW,0.00,WeatherDisplay:10.37,2013-11-06 06:57:00,
2013-11-06 08:02:00,41.4,38.4,29.61,South,180,0.0,0.0,89,0.00,CLR,FEW,0.00,WeatherDisplay:10.37,2013-11-06 07:02:00,
2013-11-06 08:07:00,41.7,38.7,29.62,SE,135,0.0,0.0,89,0.00,CLR,FEW,0.00,WeatherDisplay:10.37,2013-11-06 07:07:00,
2013-11-06 08:12:00,42.1,39.1,29.61,SSE,158,0.0,0.0,89,0.00,CLR,FEW,0.00,WeatherDisplay:10.37,2013-11-06 07:12:00,
2013-11-06 08:17:00,42.6,39.3,29.61,SSE,158,0.0,0.0,88,0.00,CLR,FEW,0.00,WeatherDisplay:10.37,2013-11-06 07:17:00,
2013-11-06 08:22:00,43.2,39.6,29.61,SSW,202,0.0,0.0,87,0.00,CLR,FEW,0.00,WeatherDisplay:10.37,2013-11-06 07:22:00,
2013-11-06 08:27:00,43.5,39.6,29.61,South,180,0.0,0.0,86,0.00,CLR,FEW,0.00,WeatherDisplay:10.37,2013-11-06 07:27:00,
2013-11-06 08:32:00,43.9,39.7,29.61,South,180,0.0,0.0,85,0.00,CLR,FEW,0.00,WeatherDisplay:10.37,2013-11-06 07:32:00,
2013-11-06 08:37:00,44.2,39.7,29.61,SE,135,0.0,0.0,84,0.00,CLR,FEW,0.00,WeatherDisplay:10.37,2013-11-06 07:37:00,
2013-11-06 08:42:00,44.8,40.2,29.62,SSE,158,1.2,0.0,84,0.00,CLR,FEW,0.00,WeatherDisplay:10.37,2013-11-06 07:42:00,
2013-11-06 08:47:00,45.5,40.6,29.61,SSW,202,0.0,0.0,83,0.00,CLR,FEW,0.00,WeatherDisplay:10.37,2013-11-06 07:47:00,
2013-11-06 08:52:00,46.0,40.2,29.62,ESE,112,0.0,0.0,80,0.00,CLR,FEW,0.00,WeatherDisplay:10.37,2013-11-06 07:52:00,
2013-11-06 08:57:00,46.6,40.7,29.61,ENE,68,2.3,2.3,80,0.00,CLR,FEW,0.00,WeatherDisplay:10.37,2013-11-06 07:57:00,
2013-11-06 09:02:00,47.3,41.1,29.61,SSE,158,0.0,0.0,79,0.00,CLR,FEW,0.00,WeatherDisplay:10.37,2013-11-06 08:02:00,
2013-11-06 09:07:00,47.8,41.0,29.62,ENE,68,0.0,0.0,77,0.00,CLR,FEW,0.00,WeatherDisplay:10.37,2013-11-06 08:07:00,
2013-11-06 09:12:00,48.0,41.2,29.62,ESE,112,0.0,0.0,77,0.00,CLR,FEW,0.00,WeatherDisplay:10.37,2013-11-06 08:12:00,
2013-11-06 09:17:00,48.0,41.5,29.61,ESE,112,0.0,0.0,78,0.00,CLR,FEW,0.00,WeatherDisplay:10.37,2013-11-06 08:17:00,
2013-11-06 09:22:00,48.4,41.5,29.61,SSE,158,0.0,0.0,77,0.00,CLR,FEW,0.00,WeatherDisplay:10.37,2013-11-06 08:22:00,
2013-11-06 09:27:00,48.6,41.7,29.62,ENE,68,0.0,0.0,77,0.00,CLR,FEW,0.00,WeatherDisplay:10.37,2013-11-06 08:27:00,
2013-11-06 09:32:00,48.6,42.0,29.62,WSW,248,0.0,0.0,78,0.00,CLR,FEW,0.00,WeatherDisplay:10.37,2013-11-06 08:32:00,
2013-11-06 09:37:00,49.1,42.5,29.62,SE,135,0.0,0.0,78,0.00,CLR,FEW,0.00,WeatherDisplay:10.37,2013-11-06 08:37:00,
2013-11-06 09:42:00,49.5,42.9,29.63,SSE,158,0.0,0.0,78,0.00,CLR,FEW,0.00,WeatherDisplay:10.37,2013-11-06 08:42:00,
2013-11-06 09:47:00,49.8,42.9,29.63,SE,135,0.0,0.0,77,0.00,CLR,FEW,0.00,WeatherDisplay:10.37,2013-11-06 08:47:00,
2013-11-06 09:52:00,50.2,43.6,29.63,WSW,248,0.0,0.0,78,0.00,CLR,FEW,0.00,WeatherDisplay:10.37,2013-11-06 08:52:00,
2013-11-06 09:57:00,49.8,42.6,29.63,North,0,0.0,0.0,76,0.00,CLR,FEW,0.00,WeatherDisplay:10.37,2013-11-06 08:57:00,
2013-11-06 10:02:00,50.2,42.9,29.62,NNW,338,2.3,2.3,76,0.00,CLR,FEW,0.00,WeatherDisplay:10.37,2013-11-06 09:02:00,
2013-11-06 10:07:00,50.7,43.4,29.62,WSW,248,0.0,0.0,76,0.00,CLR,FEW,0.00,WeatherDisplay:10.37,2013-11-06 09:07:00,
2013-11-06 10:12:00,50.9,43.6,29.62,WNW,292,0.0,0.0,76,0.00,CLR,FEW,0.00,WeatherDisplay:10.37,2013-11-06 09:12:00,
2013-11-06 10:17:00,51.1,43.4,29.63,ENE,68,0.0,0.0,75,0.00,CLR,FEW,0.00,WeatherDisplay:10.37,2013-11-06 09:17:00,
2013-11-06 10:22:00,51.1,43.4,29.63,NE,45,0.0,0.0,75,0.00,CLR,FEW,0.00,WeatherDisplay:10.37,2013-11-06 09:22:00,
2013-11-06 10:27:00,51.4,43.8,29.63,North,0,0.0,0.0,75,0.00,CLR,FEW,0.00,WeatherDisplay:10.37,2013-11-06 09:27:00,
2013-11-06 10:32:00,51.6,44.0,29.62,NNW,338,0.0,0.0,75,0.00,CLR,FEW,0.00,WeatherDisplay:10.37,2013-11-06 09:32:00,
2013-11-06 10:37:00,51.6,44.0,29.62,SE,135,0.0,0.0,75,0.00,CLR,FEW,0.00,WeatherDisplay:10.37,2013-11-06 09:37:00,
2013-11-06 10:42:00,52.2,44.5,29.63,NNW,338,0.0,0.0,75,0.00,CLR,FEW,0.00,WeatherDisplay:10.37,2013-11-06 09:42:00,
2013-11-06 10:47:00,52.7,44.6,29.62,ESE,112,0.0,0.0,74,0.00,CLR,FEW,0.00,WeatherDisplay:10.37,2013-11-06 09:47:00,
2013-11-06 10:52:00,52.9,44.5,29.62,East,90,0.0,0.0,73,0.00,CLR,FEW,0.00,WeatherDisplay:10.37,2013-11-06 09:52:00,
2013-11-06 10:57:00,53.2,44.8,29.62,WNW,292,4.6,4.6,73,0.00,CLR,FEW,0.00,WeatherDisplay:10.37,2013-11-06 09:57:00,
2013-11-06 11:02:00,53.8,45.0,29.62,NNW,338,4.6,4.6,72,0.00,CLR,FEW,0.00,WeatherDisplay:10.37,2013-11-06 10:02:00,
2013-11-06 11:07:00,54.1,44.9,29.62,NE,45,8.1,8.1,71,0.00,CLR,FEW,0.00,WeatherDisplay:10.37,2013-11-06 10:07:00,
2013-11-06 11:12:00,54.1,44.9,29.62,NW,315,4.6,4.6,71,0.00,CLR,FEW,0.00,WeatherDisplay:10.37,2013-11-06 10:12:00,
2013-11-06 11:17:00,54.0,44.4,29.62,North,0,9.2,9.2,70,0.00,CLR,FEW,0.00,WeatherDisplay:10.37,2013-11-06 10:17:00,
2013-11-06 11:22:00,54.3,44.7,29.62,NNE,22,5.8,5.8,70,0.00,CLR,FEW,0.00,WeatherDisplay:10.37,2013-11-06 10:22:00,
2013-11-06 11:27:00,54.3,44.4,29.62,West,270,4.6,4.6,69,0.00,CLR,FEW,0.00,WeatherDisplay:10.37,2013-11-06 10:27:00,
2013-11-06 11:32:00,54.7,44.7,29.62,NNW,338,9.2,9.2,69,0.00,CLR,FEW,0.00,WeatherDisplay:10.37,2013-11-06 10:32:00,
2013-11-06 11:37:00,55.2,44.4,29.62,NNE,22,16.1,16.1,67,0.00,CLR,FEW,0.00,WeatherDisplay:10.37,2013-11-06 10:37:00,
2013-11-06 11:42:00,55.6,44.8,29.62,NNW,338,12.7,12.7,67,0.00,CLR,FEW,0.00,WeatherDisplay:10.37,2013-11-06 10:42:00,
2013-11-06 11:47:00,55.6,44.8,29.62,NNW,338,5.8,5.8,67,0.00,CLR,FEW,0.00,WeatherDisplay:10.37,2013-11-06 10:47:00,
2013-11-06 11:52:00,55.2,43.7,29.63,WNW,292,12.7,12.7,65,0.00,CLR,FEW,0.00,WeatherDisplay:10.37,2013-11-06 10:52:00,
2013-11-06 11:57:00,54.7,43.9,29.63,ESE,112,5.8,5.8,67,0.00,CLR,FEW,0.00,WeatherDisplay:10.37,2013-11-06 10:57:00,
2013-11-06 12:02:00,55.6,44.4,29.63,North,0,6.9,6.9,66,0.00,CLR,FEW,0.00,WeatherDisplay:10.37,2013-11-06 11:02:00,
2013-11-06 12:07:00,56.1,44.9,29.63,North,0,3.5,3.5,66,0.00,CLR,FEW,0.00,WeatherDisplay:10.37,2013-11-06 11:07:00,
2013-11-06 12:12:00,56.1,44.9,29.63,North,0,4.6,4.6,66,0.00,CLR,FEW,0.00,WeatherDisplay:10.37,2013-11-06 11:12:00,
2013-11-06 12:17:00,55.6,44.0,29.64,NNW,338,10.4,10.4,65,0.00,CLR,FEW,0.00,WeatherDisplay:10.37,2013-11-06 11:17:00,
2013-11-06 12:22:00,55.2,43.7,29.64,NNE,22,2.3,2.3,65,0.00,CLR,FEW,0.00,WeatherDisplay:10.37,2013-11-06 11:22:00,
2013-11-06 12:27:00,55.2,43.7,29.63,North,0,5.8,5.8,65,0.00,CLR,FEW,0.00,WeatherDisplay:10.37,2013-11-06 11:27:00,
2013-11-06 12:32:00,55.9,44.3,29.64,North,0,3.5,0.0,65,0.00,CLR,FEW,0.00,WeatherDisplay:10.37,2013-11-06 11:32:00,
2013-11-06 12:37:00,55.9,43.5,29.63,NNW,338,3.5,3.5,63,0.00,CLR,FEW,0.00,WeatherDisplay:10.37,2013-11-06 11:37:00,
2013-11-06 12:42:00,55.6,42.3,29.63,NNE,22,4.6,4.6,61,0.00,CLR,FEW,0.00,WeatherDisplay:10.37,2013-11-06 11:42:00,
2013-11-06 12:47:00,55.2,42.0,29.64,North,0,3.5,3.5,61,0.00,CLR,FEW,0.00,WeatherDisplay:10.37,2013-11-06 11:47:00,
2013-11-06 12:52:00,55.2,42.4,29.64,WNW,292,4.6,4.6,62,0.00,CLR,FEW,0.00,WeatherDisplay:10.37,2013-11-06 11:52:00,
2013-11-06 12:57:00,55.0,42.3,29.65,WNW,292,12.7,12.7,62,0.00,CLR,FEW,0.00,WeatherDisplay:10.37,2013-11-06 11:57:00,
2013-11-06 13:02:00,55.0,42.3,29.65,NW,315,10.9,10.9,62,0.00,CLR,FEW,0.00,WeatherDisplay:10.37,2013-11-06 12:02:00,
2013-11-06 13:07:00,54.9,42.5,29.65,NNE,22,5.8,5.8,63,0.00,CLR,FEW,0.00,WeatherDisplay:10.37,2013-11-06 12:07:00,
2013-11-06 13:12:00,54.7,42.3,29.65,NNE,22,2.3,2.3,63,0.00,CLR,FEW,0.00,WeatherDisplay:10.37,2013-11-06 12:12:00,
2013-11-06 13:17:00,55.0,42.7,29.65,WNW,292,11.4,11.4,63,0.00,CLR,FEW,0.00,WeatherDisplay:10.37,2013-11-06 12:17:00,
2013-11-06 13:22:00,55.4,42.6,29.65,NW,315,3.5,4.2,62,0.00,CLR,FEW,0.00,WeatherDisplay:10.37,2013-11-06 12:22:00,
2013-11-06 13:27:00,55.6,41.9,29.65,North,0,8.1,8.1,60,0.00,CLR,FEW,0.00,WeatherDisplay:10.37,2013-11-06 12:27:00,
2013-11-06 13:32:00,55.9,42.7,29.65,WNW,292,10.4,10.4,61,0.00,CLR,FEW,0.00,WeatherDisplay:10.37,2013-11-06 12:32:00,
2013-11-06 13:37:00,55.9,43.1,29.65,NW,315,4.2,4.2,62,0.00,CLR,FEW,0.00,WeatherDisplay:10.37,2013-11-06 12:37:00,
2013-11-06 13:42:00,55.9,42.7,29.65,North,0,6.9,6.9,61,0.00,CLR,FEW,0.00,WeatherDisplay:10.37,2013-11-06 12:42:00,
2013-11-06 13:47:00,55.6,42.3,29.65,NW,315,8.5,8.5,61,0.00,CLR,FEW,0.00,WeatherDisplay:10.37,2013-11-06 12:47:00,
2013-11-06 13:52:00,55.0,42.3,29.66,North,0,5.8,5.8,62,0.00,CLR,FEW,0.00,WeatherDisplay:10.37,2013-11-06 12:52:00,
2013-11-06 13:57:00,54.7,42.3,29.65,North,0,3.5,3.5,63,0.00,CLR,FEW,0.00,WeatherDisplay:10.37,2013-11-06 12:57:00,
2013-11-06 14:02:00,54.7,42.3,29.65,NE,45,3.5,3.5,63,0.00,CLR,FEW,0.00,WeatherDisplay:10.37,2013-11-06 13:02:00,
2013-11-06 14:07:00,54.7,42.7,29.66,WNW,292,2.3,2.3,64,0.00,CLR,FEW,0.00,WeatherDisplay:10.37,2013-11-06 13:07:00,
2013-11-06 14:12:00,54.3,42.0,29.67,WNW,292,6.9,6.9,63,0.00,CLR,FEW,0.00,WeatherDisplay:10.37,2013-11-06 13:12:00,
2013-11-06 14:17:00,54.3,42.4,29.67,NNE,22,3.5,3.5,64,0.00,CLR,FEW,0.00,WeatherDisplay:10.37,2013-11-06 13:17:00,
2013-11-06 14:22:00,54.1,42.2,29.67,WNW,292,2.3,2.3,64,0.00,CLR,FEW,0.00,WeatherDisplay:10.37,2013-11-06 13:22:00,
2013-11-06 14:27:00,54.0,42.5,29.67,North,0,2.3,2.3,65,0.00,CLR,FEW,0.00,WeatherDisplay:10.37,2013-11-06 13:27:00,
2013-11-06 14:32:00,53.8,42.3,29.67,NNE,22,2.3,2.3,65,0.00,CLR,FEW,0.00,WeatherDisplay:10.37,2013-11-06 13:32:00,
2013-11-06 14:37:00,53.8,42.3,29.67,SE,135,0.0,0.0,65,0.00,CLR,FEW,0.00,WeatherDisplay:10.37,2013-11-06 13:37:00,
2013-11-06 14:42:00,53.8,42.7,29.67,West,270,0.0,0.0,66,0.00,CLR,FEW,0.00,WeatherDisplay:10.37,2013-11-06 13:42:00,
2013-11-06 14:47:00,53.8,42.7,29.67,SSE,158,0.0,0.0,66,0.00,CLR,FEW,0.00,WeatherDisplay:10.37,2013-11-06 13:47:00,
2013-11-06 14:52:00,53.8,43.1,29.67,SSE,158,0.0,0.0,67,0.00,CLR,FEW,0.00,WeatherDisplay:10.37,2013-11-06 13:52:00,
2013-11-06 14:57:00,53.4,43.1,29.67,North,0,0.0,0.0,68,0.00,CLR,FEW,0.00,WeatherDisplay:10.37,2013-11-06 13:57:00,
2013-11-06 15:02:00,53.2,42.9,29.66,East,90,0.0,0.0,68,0.00,CLR,FEW,0.00,WeatherDisplay:10.37,2013-11-06 14:02:00,
2013-11-06 15:07:00,52.7,42.8,29.67,SSE,158,1.2,1.2,69,0.00,CLR,FEW,0.00,WeatherDisplay:10.37,2013-11-06 14:07:00,
2013-11-06 15:12:00,53.2,42.6,29.67,East,90,1.2,0.0,67,0.00,CLR,FEW,0.00,WeatherDisplay:10.37,2013-11-06 14:12:00,
2013-11-06 15:17:00,53.2,42.6,29.67,ESE,112,0.0,0.0,67,0.00,CLR,FEW,0.00,WeatherDisplay:10.37,2013-11-06 14:17:00,
2013-11-06 15:22:00,52.9,42.6,29.67,WSW,248,0.0,0.0,68,0.00,CLR,FEW,0.00,WeatherDisplay:10.37,2013-11-06 14:22:00,
2013-11-06 15:27:00,53.2,42.9,29.67,NW,315,0.0,0.1,68,0.00,CLR,FEW,0.00,WeatherDisplay:10.37,2013-11-06 14:27:00,
2013-11-06 15:32:00,53.2,42.9,29.67,ENE,68,1.6,0.0,68,0.00,CLR,FEW,0.00,WeatherDisplay:10.37,2013-11-06 14:32:00,
2013-11-06 15:37:00,53.2,42.9,29.67,West,270,3.5,3.5,68,0.00,CLR,FEW,0.00,WeatherDisplay:10.37,2013-11-06 14:37:00,
2013-11-06 15:42:00,53.4,42.3,29.68,NE,45,6.9,6.9,66,0.00,CLR,FEW,0.00,WeatherDisplay:10.37,2013-11-06 14:42:00,
2013-11-06 15:47:00,53.4,42.3,29.68,NW,315,2.3,2.3,66,0.00,CLR,FEW,0.00,WeatherDisplay:10.37,2013-11-06 14:47:00,
2013-11-06 15:52:00,53.4,42.3,29.68,East,90,2.3,2.3,66,0.00,CLR,FEW,0.00,WeatherDisplay:10.37,2013-11-06 14:52:00,
2013-11-06 15:57:00,53.2,42.2,29.68,NW,315,9.6,9.6,66,0.00,CLR,FEW,0.00,WeatherDisplay:10.37,2013-11-06 14:57:00,
2013-11-06 16:02:00,53.1,42.0,29.69,NNW,338,10.4,10.4,66,0.00,CLR,FEW,0.00,WeatherDisplay:10.37,2013-11-06 15:02:00,
2013-11-06 16:07:00,52.9,41.4,29.69,WNW,292,8.1,8.1,65,0.00,CLR,FEW,0.00,WeatherDisplay:10.37,2013-11-06 15:07:00,
2013-11-06 16:12:00,52.3,41.7,29.69,WSW,248,3.5,3.5,67,0.00,CLR,FEW,0.00,WeatherDisplay:10.37,2013-11-06 15:12:00,
2013-11-06 16:17:00,52.3,41.3,29.69,North,0,3.5,3.5,66,0.00,CLR,FEW,0.00,WeatherDisplay:10.37,2013-11-06 15:17:00,
2013-11-06 16:22:00,52.0,41.4,29.69,NNW,338,10.4,10.4,67,0.00,CLR,FEW,0.00,WeatherDisplay:10.37,2013-11-06 15:22:00,
2013-11-06 16:27:00,52.2,41.1,29.70,North,0,10.4,10.4,66,0.00,CLR,FEW,0.00,WeatherDisplay:10.37,2013-11-06 15:27:00,
2013-11-06 16:32:00,52.2,41.1,29.71,NW,315,10.4,10.4,66,0.00,CLR,FEW,0.00,WeatherDisplay:10.37,2013-11-06 15:32:00,
2013-11-06 16:37:00,52.0,41.4,29.71,NW,315,12.7,12.7,67,0.00,CLR,FEW,0.00,WeatherDisplay:10.37,2013-11-06 15:37:00,
2013-11-06 16:42:00,52.0,41.4,29.71,WNW,292,11.5,11.5,67,0.00,CLR,FEW,0.00,WeatherDisplay:10.37,2013-11-06 15:42:00,
2013-11-06 16:47:00,52.0,41.4,29.71,NNW,338,4.6,4.7,67,0.00,CLR,FEW,0.00,WeatherDisplay:10.37,2013-11-06 15:47:00,
2013-11-06 16:52:00,51.6,41.4,29.72,North,0,5.8,5.8,68,0.00,CLR,FEW,0.00,WeatherDisplay:10.37,2013-11-06 15:52:00,
2013-11-06 16:57:00,51.4,41.2,29.72,NNW,338,5.8,5.8,68,0.00,CLR,FEW,0.00,WeatherDisplay:10.37,2013-11-06 15:57:00,
2013-11-06 17:02:00,51.1,41.3,29.72,NNW,338,11.5,11.5,69,0.00,CLR,FEW,0.00,WeatherDisplay:10.37,2013-11-06 16:02:00,
2013-11-06 17:07:00,50.7,40.9,29.72,NW,315,10.4,10.4,69,0.00,CLR,FEW,0.00,WeatherDisplay:10.37,2013-11-06 16:07:00,
2013-11-06 17:12:00,50.5,41.1,29.73,North,0,3.5,3.5,70,0.00,CLR,FEW,0.00,WeatherDisplay:10.37,2013-11-06 16:12:00,
2013-11-06 17:17:00,50.2,41.1,29.73,North,0,5.8,5.8,71,0.00,CLR,FEW,0.00,WeatherDisplay:10.37,2013-11-06 16:17:00,
2013-11-06 17:22:00,49.8,41.2,29.73,North,0,2.3,2.3,72,0.00,CLR,FEW,0.00,WeatherDisplay:10.37,2013-11-06 16:22:00,
2013-11-06 17:27:00,49.3,41.0,29.73,South,180,1.2,0.0,73,0.00,CLR,FEW,0.00,WeatherDisplay:10.37,2013-11-06 16:27:00,
2013-11-06 17:32:00,48.7,40.8,29.73,North,0,3.5,3.5,74,0.00,CLR,FEW,0.00,WeatherDisplay:10.37,2013-11-06 16:32:00,
2013-11-06 17:37:00,48.6,40.6,29.73,North,0,5.1,5.1,74,0.00,CLR,FEW,0.00,WeatherDisplay:10.37,2013-11-06 16:37:00,
2013-11-06 17:42:00,48.4,40.8,29.73,NNE,22,3.5,3.5,75,0.00,CLR,FEW,0.00,WeatherDisplay:10.37,2013-11-06 16:42:00,
2013-11-06 17:47:00,48.0,40.8,29.73,NW,315,5.1,5.1,76,0.00,CLR,FEW,0.00,WeatherDisplay:10.37,2013-11-06 16:47:00,
2013-11-06 17:52:00,48.0,40.8,29.74,NNW,338,0.0,1.0,76,0.00,CLR,FEW,0.00,WeatherDisplay:10.37,2013-11-06 16:52:00,
2013-11-06 17:57:00,47.8,41.0,29.74,West,270,3.5,3.5,77,0.00,CLR,FEW,0.00,WeatherDisplay:10.37,2013-11-06 16:57:00,
2013-11-06 18:02:00,47.7,40.8,29.74,WNW,292,4.6,4.6,77,0.00,CLR,FEW,0.00,WeatherDisplay:10.37,2013-11-06 17:02:00,
2013-11-06 18:07:00,47.3,40.5,29.74,NNE,22,4.0,4.0,77,0.00,CLR,FEW,0.00,WeatherDisplay:10.37,2013-11-06 17:07:00,
2013-11-06 18:12:00,47.1,40.3,29.74,ENE,68,0.0,0.0,77,0.00,CLR,FEW,0.00,WeatherDisplay:10.37,2013-11-06 17:12:00,
2013-11-06 18:17:00,46.6,40.1,29.75,NNW,338,0.0,0.0,78,0.00,CLR,FEW,0.00,WeatherDisplay:10.37,2013-11-06 17:17:00,
2013-11-06 18:22:00,46.0,39.6,29.75,ESE,112,0.0,0.0,78,0.00,CLR,FEW,0.00,WeatherDisplay:10.37,2013-11-06 17:22:00,
2013-11-06 18:27:00,45.9,39.7,29.75,NW,315,0.0,0.0,79,0.00,CLR,FEW,0.00,WeatherDisplay:10.37,2013-11-06 17:27:00,
2013-11-06 18:32:00,45.7,39.5,29.75,NNE,22,0.0,0.0,79,0.00,CLR,FEW,0.00,WeatherDisplay:10.37,2013-11-06 17:32:00,
2013-11-06 18:37:00,45.3,39.5,29.75,WNW,292,2.2,2.2,80,0.00,CLR,FEW,0.00,WeatherDisplay:10.37,2013-11-06 17:37:00,
2013-11-06 18:42:00,45.7,40.2,29.76,SSE,158,4.6,4.6,81,0.00,CLR,FEW,0.00,WeatherDisplay:10.37,2013-11-06 17:42:00,
2013-11-06 18:47:00,45.7,40.2,29.75,North,0,0.0,0.0,81,0.00,CLR,FEW,0.00,WeatherDisplay:10.37,2013-11-06 17:47:00,
2013-11-06 18:52:00,46.0,40.5,29.76,NE,45,0.0,0.0,81,0.00,CLR,FEW,0.00,WeatherDisplay:10.37,2013-11-06 17:52:00,
2013-11-06 18:57:00,46.6,41.1,29.75,East,90,0.0,0.0,81,0.00,CLR,FEW,0.00,WeatherDisplay:10.37,2013-11-06 17:57:00,
2013-11-06 19:02:00,46.9,41.1,29.76,ESE,112,0.0,0.0,80,0.00,CLR,FEW,0.00,WeatherDisplay:10.37,2013-11-06 18:02:00,
2013-11-06 19:07:00,47.1,41.3,29.76,NNW,338,0.0,0.2,80,0.00,CLR,FEW,0.00,WeatherDisplay:10.37,2013-11-06 18:07:00,
2013-11-06 19:12:00,47.1,41.3,29.76,SE,135,0.0,0.0,80,0.00,CLR,FEW,0.00,WeatherDisplay:10.37,2013-11-06 18:12:00,
2013-11-06 19:17:00,46.9,41.1,29.76,SE,135,0.0,0.0,80,0.00,CLR,FEW,0.00,WeatherDisplay:10.37,2013-11-06 18:17:00,
2013-11-06 19:22:00,46.8,40.9,29.77,East,90,2.3,2.3,80,0.00,CLR,FEW,0.00,WeatherDisplay:10.37,2013-11-06 18:22:00,
2013-11-06 19:27:00,46.9,41.1,29.77,ESE,112,0.0,0.0,80,0.00,CLR,FEW,0.00,WeatherDisplay:10.37,2013-11-06 18:27:00,
2013-11-06 19:32:00,47.1,41.3,29.77,SSE,158,0.0,0.0,80,0.00,CLR,FEW,0.00,WeatherDisplay:10.37,2013-11-06 18:32:00,
2013-11-06 19:37:00,47.3,41.4,29.77,NE,45,2.3,0.0,80,0.00,CLR,FEW,0.00,WeatherDisplay:10.37,2013-11-06 18:37:00,
2013-11-06 19:42:00,47.8,41.6,29.77,SSW,202,0.0,0.4,79,0.00,CLR,FEW,0.00,WeatherDisplay:10.37,2013-11-06 18:42:00,
2013-11-06 19:47:00,47.8,41.6,29.77,SSE,158,1.1,0.0,79,0.00,CLR,FEW,0.00,WeatherDisplay:10.37,2013-11-06 18:47:00,
2013-11-06 19:52:00,47.8,41.6,29.77,NNE,22,0.0,0.3,79,0.00,CLR,FEW,0.00,WeatherDisplay:10.37,2013-11-06 18:52:00,
2013-11-06 19:57:00,48.0,41.8,29.78,NNE,22,5.8,5.8,79,0.00,CLR,FEW,0.00,WeatherDisplay:10.37,2013-11-06 18:57:00,
2013-11-06 20:02:00,48.0,41.5,29.79,NW,315,2.3,2.3,78,0.00,CLR,FEW,0.00,WeatherDisplay:10.37,2013-11-06 19:02:00,
2013-11-06 20:07:00,48.6,41.7,29.78,NE,45,2.3,0.0,77,0.00,CLR,FEW,0.00,WeatherDisplay:10.37,2013-11-06 19:07:00,
2013-11-06 20:12:00,48.6,41.7,29.78,NNE,22,0.0,0.0,77,0.00,CLR,FEW,0.00,WeatherDisplay:10.37,2013-11-06 19:12:00,
2013-11-06 20:17:00,48.6,41.7,29.78,ENE,68,0.0,0.0,77,0.00,CLR,FEW,0.00,WeatherDisplay:10.37,2013-11-06 19:17:00,
2013-11-06 20:22:00,48.4,41.5,29.78,North,0,0.0,0.0,77,0.00,CLR,FEW,0.00,WeatherDisplay:10.37,2013-11-06 19:22:00,
2013-11-06 20:27:00,48.6,41.7,29.79,WNW,292,2.3,2.3,77,0.00,CLR,FEW,0.00,WeatherDisplay:10.37,2013-11-06 19:27:00,
2013-11-06 20:32:00,48.7,41.8,29.80,West,270,5.8,5.8,77,0.00,CLR,FEW,0.00,WeatherDisplay:10.37,2013-11-06 19:32:00,
2013-11-06 20:37:00,49.1,41.9,29.80,NW,315,2.0,2.0,76,0.00,CLR,FEW,0.00,WeatherDisplay:10.37,2013-11-06 19:37:00,
2013-11-06 20:42:00,49.3,42.0,29.79,WNW,292,1.2,0.0,76,0.00,CLR,FEW,0.00,WeatherDisplay:10.37,2013-11-06 19:42:00,
2013-11-06 20:47:00,49.3,42.0,29.80,NW,315,3.5,3.5,76,0.00,CLR,FEW,0.00,WeatherDisplay:10.37,2013-11-06 19:47:00,
2013-11-06 20:52:00,49.5,41.9,29.80,NNE,22,2.3,2.3,75,0.00,CLR,FEW,0.00,WeatherDisplay:10.37,2013-11-06 19:52:00,
2013-11-06 20:57:00,49.6,42.0,29.80,West,270,2.3,2.3,75,0.00,CLR,FEW,0.00,WeatherDisplay:10.37,2013-11-06 19:57:00,
2013-11-06 21:02:00,49.3,41.7,29.79,NNW,338,0.0,0.0,75,0.00,CLR,FEW,0.00,WeatherDisplay:10.37,2013-11-06 20:02:00,
2013-11-06 21:07:00,49.3,41.7,29.80,North,0,0.0,0.0,75,0.00,CLR,FEW,0.00,WeatherDisplay:10.37,2013-11-06 20:07:00,
2013-11-06 21:12:00,49.1,41.5,29.81,NW,315,2.3,2.3,75,0.00,CLR,FEW,0.00,WeatherDisplay:10.37,2013-11-06 20:12:00,
2013-11-06 21:17:00,49.1,41.5,29.80,West,270,0.0,3.9,75,0.00,CLR,FEW,0.00,WeatherDisplay:10.37,2013-11-06 20:17:00,
2013-11-06 21:22:00,49.3,41.7,29.80,NE,45,2.3,2.3,75,0.00,CLR,FEW,0.00,WeatherDisplay:10.37,2013-11-06 20:22:00,
2013-11-06 21:27:00,49.1,41.5,29.80,NNE,22,0.0,0.0,75,0.00,CLR,FEW,0.00,WeatherDisplay:10.37,2013-11-06 20:27:00,
2013-11-06 21:32:00,48.9,41.3,29.81,NNE,22,0.0,0.0,75,0.00,CLR,FEW,0.00,WeatherDisplay:10.37,2013-11-06 20:32:00,
2013-11-06 21:37:00,48.9,41.7,29.81,North,0,2.3,2.3,76,0.00,CLR,FEW,0.00,WeatherDisplay:10.37,2013-11-06 20:37:00,
2013-11-06 21:42:00,48.9,41.7,29.81,North,0,1.2,1.2,76,0.00,CLR,FEW,0.00,WeatherDisplay:10.37,2013-11-06 20:42:00,
2013-11-06 21:47:00,48.9,41.7,29.82,SE,135,0.0,0.0,76,0.00,CLR,FEW,0.00,WeatherDisplay:10.37,2013-11-06 20:47:00,
2013-11-06 21:52:00,48.7,41.5,29.81,SE,135,0.0,0.0,76,0.00,CLR,FEW,0.00,WeatherDisplay:10.37,2013-11-06 20:52:00,
2013-11-06 21:57:00,48.6,41.7,29.81,North,0,0.0,0.6,77,0.00,CLR,FEW,0.00,WeatherDisplay:10.37,2013-11-06 20:57:00,
2013-11-06 22:02:00,48.6,41.7,29.81,SE,135,0.0,0.0,77,0.00,CLR,FEW,0.00,WeatherDisplay:10.37,2013-11-06 21:02:00,
2013-11-06 22:07:00,48.6,41.7,29.82,NNE,22,1.3,1.3,77,0.00,CLR,FEW,0.00,WeatherDisplay:10.37,2013-11-06 21:07:00,
2013-11-06 22:12:00,48.7,41.8,29.82,East,90,0.0,0.0,77,0.00,CLR,FEW,0.00,WeatherDisplay:10.37,2013-11-06 21:12:00,
2013-11-06 22:17:00,48.6,41.7,29.82,ESE,112,1.2,0.0,77,0.00,CLR,FEW,0.00,WeatherDisplay:10.37,2013-11-06 21:17:00,
2013-11-06 22:22:00,48.7,41.8,29.83,East,90,0.0,0.0,77,0.00,CLR,FEW,0.00,WeatherDisplay:10.37,2013-11-06 21:22:00,
2013-11-06 22:27:00,48.7,41.8,29.83,ESE,112,0.0,0.0,77,0.00,CLR,FEW,0.00,WeatherDisplay:10.37,2013-11-06 21:27:00,
2013-11-06 22:32:00,48.6,41.7,29.83,NNW,338,0.0,0.4,77,0.00,CLR,FEW,0.00,WeatherDisplay:10.37,2013-11-06 21:32:00,
2013-11-06 22:37:00,48.4,41.5,29.83,NNE,22,0.0,0.0,77,0.00,CLR,FEW,0.00,WeatherDisplay:10.37,2013-11-06 21:37:00,
2013-11-06 22:42:00,48.6,41.7,29.83,NNE,22,2.3,2.3,77,0.00,CLR,FEW,0.00,WeatherDisplay:10.37,2013-11-06 21:42:00,
2013-11-06 22:47:00,48.4,41.5,29.83,WNW,292,2.3,0.0,77,0.00,CLR,FEW,0.00,WeatherDisplay:10.37,2013-11-06 21:47:00,
2013-11-06 22:52:00,48.4,41.5,29.84,NW,315,5.1,5.1,77,0.00,CLR,FEW,0.00,WeatherDisplay:10.37,2013-11-06 21:52:00,
2013-11-06 22:57:00,48.6,41.7,29.84,NNW,338,3.5,3.5,77,0.00,CLR,FEW,0.00,WeatherDisplay:10.37,2013-11-06 21:57:00,
2013-11-06 23:02:00,48.7,41.8,29.83,WNW,292,2.3,2.3,77,0.00,CLR,FEW,0.00,WeatherDisplay:10.37,2013-11-06 22:02:00,
2013-11-06 23:07:00,48.7,41.8,29.83,West,270,1.2,1.2,77,0.00,CLR,FEW,0.00,WeatherDisplay:10.37,2013-11-06 22:07:00,
2013-11-06 23:12:00,48.7,41.5,29.83,NW,315,3.5,3.5,76,0.00,CLR,FEW,0.00,WeatherDisplay:10.37,2013-11-06 22:12:00,
2013-11-06 23:17:00,48.7,41.8,29.84,NNW,338,2.3,2.3,77,0.00,CLR,FEW,0.00,WeatherDisplay:10.37,2013-11-06 22:17:00,
2013-11-06 23:22:00,48.7,41.8,29.84,NNE,22,2.3,2.3,77,0.00,CLR,FEW,0.00,WeatherDisplay:10.37,2013-11-06 22:22:00,
2013-11-06 23:27:00,48.6,41.7,29.84,NW,315,2.3,2.3,77,0.00,CLR,FEW,0.00,WeatherDisplay:10.37,2013-11-06 22:27:00,
2013-11-06 23:32:00,48.4,41.5,29.85,NNW,338,1.2,1.2,77,0.00,CLR,FEW,0.00,WeatherDisplay:10.37,2013-11-06 22:32:00,
2013-11-06 23:37:00,48.4,41.5,29.85,NNW,338,3.5,3.5,77,0.00,CLR,FEW,0.00,WeatherDisplay:10.37,2013-11-06 22:37:00,
2013-11-06 23:42:00,48.4,41.5,29.84,SSE,158,0.0,0.0,77,0.00,CLR,FEW,0.00,WeatherDisplay:10.37,2013-11-06 22:42:00,
2013-11-06 23:47:00,48.0,41.2,29.85,South,180,0.0,0.0,77,0.00,CLR,FEW,0.00,WeatherDisplay:10.37,2013-11-06 22:47:00,
2013-11-06 23:52:00,48.0,41.5,29.85,SSW,202,2.5,2.5,78,0.00,CLR,FEW,0.00,WeatherDisplay:10.37,2013-11-06 22:52:00,
2013-11-06 23:57:00,47.8,41.3,29.84,North,0,0.0,0.0,78,0.00,CLR,FEW,0.00,WeatherDisplay:10.37,2013-11-06 22:57:00,